Year,Month,Day,Hour,Minute,Value (Times are PST for temperature in C)
2006,10,06,00,00,12.90
2006,10,06,00,01,12.90
2006,10,06,00,02,12.90
2006,10,06,00,03,13.00
2006,10,06,00,04,13.00
2006,10,06,00,05,13.00
2006,10,06,00,06,13.00
2006,10,06,00,07,13.00
2006,10,06,00,08,13.00
2006,10,06,00,09,13.00
2006,10,06,00,10,12.90
2006,10,06,00,11,12.90
2006,10,06,00,12,12.90
2006,10,06,00,13,12.90
2006,10,06,00,14,12.90
2006,10,06,00,15,13.00
2006,10,06,00,16,13.00
2006,10,06,00,17,13.00
2006,10,06,00,18,13.10
2006,10,06,00,19,13.10
2006,10,06,00,20,13.00
2006,10,06,00,21,13.00
2006,10,06,00,22,12.90
2006,10,06,00,23,12.80
2006,10,06,00,24,12.80
2006,10,06,00,25,12.80
2006,10,06,00,26,12.80
2006,10,06,00,27,12.80
2006,10,06,00,28,12.80
2006,10,06,00,29,12.80
2006,10,06,00,30,12.80
2006,10,06,00,31,12.70
2006,10,06,00,32,12.70
2006,10,06,00,33,12.60
2006,10,06,00,34,12.60
2006,10,06,00,35,12.60
2006,10,06,00,36,12.60
2006,10,06,00,37,12.50
2006,10,06,00,38,12.50
2006,10,06,00,39,12.50
2006,10,06,00,40,12.50
2006,10,06,00,41,12.50
2006,10,06,00,42,12.50
2006,10,06,00,43,12.60
2006,10,06,00,44,12.60
2006,10,06,00,45,12.60
2006,10,06,00,46,12.60
2006,10,06,00,47,12.60
2006,10,06,00,48,12.70
2006,10,06,00,49,12.70
2006,10,06,00,50,12.60
2006,10,06,00,51,12.60
2006,10,06,00,52,12.60
2006,10,06,00,53,12.60
2006,10,06,00,54,12.60
2006,10,06,00,55,12.70
2006,10,06,00,56,12.70
2006,10,06,00,57,12.70
2006,10,06,00,58,12.70
2006,10,06,00,59,12.70
2006,10,06,01,00,12.70
2006,10,06,01,01,12.80
2006,10,06,01,02,12.80
2006,10,06,01,03,12.80
2006,10,06,01,04,12.80
2006,10,06,01,05,12.80
2006,10,06,01,06,12.70
2006,10,06,01,07,12.50
2006,10,06,01,08,12.40
2006,10,06,01,09,12.30
2006,10,06,01,10,12.10
2006,10,06,01,11,12.10
2006,10,06,01,12,12.00
2006,10,06,01,13,12.00
2006,10,06,01,14,11.90
2006,10,06,01,15,11.90
2006,10,06,01,16,11.90
2006,10,06,01,17,11.90
2006,10,06,01,18,12.00
2006,10,06,01,19,12.00
2006,10,06,01,20,12.00
2006,10,06,01,21,12.00
2006,10,06,01,22,12.00
2006,10,06,01,23,12.10
2006,10,06,01,24,12.10
2006,10,06,01,25,12.10
2006,10,06,01,26,12.10
2006,10,06,01,27,12.20
2006,10,06,01,28,12.20
2006,10,06,01,29,12.30
2006,10,06,01,30,12.30
2006,10,06,01,31,12.20
2006,10,06,01,32,12.20
2006,10,06,01,33,12.10
2006,10,06,01,34,12.00
2006,10,06,01,35,11.90
2006,10,06,01,36,11.90
2006,10,06,01,37,11.80
2006,10,06,01,38,11.70
2006,10,06,01,39,11.70
2006,10,06,01,40,11.60
2006,10,06,01,41,11.60
2006,10,06,01,42,11.40
2006,10,06,01,43,11.40
2006,10,06,01,44,11.30
2006,10,06,01,45,11.30
2006,10,06,01,46,11.30
2006,10,06,01,47,11.30
2006,10,06,01,48,11.40
2006,10,06,01,49,11.40
2006,10,06,01,50,11.40
2006,10,06,01,51,11.40
2006,10,06,01,52,11.40
2006,10,06,01,53,11.40
2006,10,06,01,54,11.40
2006,10,06,01,55,11.60
2006,10,06,01,56,11.60
2006,10,06,01,57,11.60
2006,10,06,01,58,11.60
2006,10,06,01,59,11.70
2006,10,06,02,00,11.80
2006,10,06,02,01,11.80
2006,10,06,02,02,11.80
2006,10,06,02,03,11.90
2006,10,06,02,04,11.90
2006,10,06,02,05,11.90
2006,10,06,02,06,12.00
2006,10,06,02,07,12.00
2006,10,06,02,08,12.00
2006,10,06,02,09,12.00
2006,10,06,02,10,12.00
2006,10,06,02,11,12.00
2006,10,06,02,12,12.10
2006,10,06,02,13,12.10
2006,10,06,02,14,12.10
2006,10,06,02,15,12.10
2006,10,06,02,16,12.10
2006,10,06,02,17,12.10
2006,10,06,02,18,12.10
2006,10,06,02,19,12.10
2006,10,06,02,20,12.10
2006,10,06,02,21,12.20
2006,10,06,02,22,12.20
2006,10,06,02,23,12.30
2006,10,06,02,24,12.30
2006,10,06,02,25,12.30
2006,10,06,02,26,12.30
2006,10,06,02,27,12.20
2006,10,06,02,28,12.30
2006,10,06,02,29,12.30
2006,10,06,02,30,12.40
2006,10,06,02,31,12.30
2006,10,06,02,32,12.30
2006,10,06,02,33,12.30
2006,10,06,02,34,12.30
2006,10,06,02,35,12.40
2006,10,06,02,36,12.50
2006,10,06,02,37,12.50
2006,10,06,02,38,12.60
2006,10,06,02,39,12.60
2006,10,06,02,40,12.70
2006,10,06,02,41,12.70
2006,10,06,02,42,12.70
2006,10,06,02,43,12.80
2006,10,06,02,44,12.80
2006,10,06,02,45,12.80
2006,10,06,02,46,12.80
2006,10,06,02,47,12.80
2006,10,06,02,48,12.80
2006,10,06,02,49,12.80
2006,10,06,02,50,12.80
2006,10,06,02,51,12.80
2006,10,06,02,52,12.90
2006,10,06,02,53,12.90
2006,10,06,02,54,13.00
2006,10,06,02,55,13.00
2006,10,06,02,56,12.90
2006,10,06,02,57,12.90
2006,10,06,02,58,12.80
2006,10,06,02,59,12.80
2006,10,06,03,00,12.70
2006,10,06,03,01,12.60
2006,10,06,03,02,12.50
2006,10,06,03,03,12.50
2006,10,06,03,04,12.50
2006,10,06,03,05,12.40
2006,10,06,03,06,12.40
2006,10,06,03,07,12.40
2006,10,06,03,08,12.30
2006,10,06,03,09,12.30
2006,10,06,03,10,12.30
2006,10,06,03,11,12.30
2006,10,06,03,12,12.30
2006,10,06,03,13,12.30
2006,10,06,03,14,12.20
2006,10,06,03,15,12.20
2006,10,06,03,16,12.20
2006,10,06,03,17,12.10
2006,10,06,03,18,12.00
2006,10,06,03,19,12.00
2006,10,06,03,20,11.90
2006,10,06,03,21,11.90
2006,10,06,03,22,11.90
2006,10,06,03,23,11.90
2006,10,06,03,24,12.00
2006,10,06,03,25,12.00
2006,10,06,03,26,12.00
2006,10,06,03,27,11.90
2006,10,06,03,28,11.80
2006,10,06,03,29,11.80
2006,10,06,03,30,11.80
2006,10,06,03,31,11.80
2006,10,06,03,32,11.80
2006,10,06,03,33,11.80
2006,10,06,03,34,11.80
2006,10,06,03,35,11.80
2006,10,06,03,36,11.80
2006,10,06,03,37,11.80
2006,10,06,03,38,11.80
2006,10,06,03,39,11.70
2006,10,06,03,40,11.70
2006,10,06,03,41,11.70
2006,10,06,03,42,11.70
2006,10,06,03,43,11.70
2006,10,06,03,44,11.70
2006,10,06,03,45,11.60
2006,10,06,03,46,11.60
2006,10,06,03,47,11.60
2006,10,06,03,48,11.60
2006,10,06,03,49,11.60
2006,10,06,03,50,11.60
2006,10,06,03,51,11.60
2006,10,06,03,52,11.60
2006,10,06,03,53,11.60
2006,10,06,03,54,11.60
2006,10,06,03,55,11.50
2006,10,06,03,56,11.40
2006,10,06,03,57,11.40
2006,10,06,03,58,11.40
2006,10,06,03,59,11.40
2006,10,06,04,00,11.40
2006,10,06,04,01,11.40
2006,10,06,04,02,11.40
2006,10,06,04,03,11.40
2006,10,06,04,04,11.40
2006,10,06,04,05,11.40
2006,10,06,04,06,11.40
2006,10,06,04,07,11.40
2006,10,06,04,08,11.40
2006,10,06,04,09,11.40
2006,10,06,04,10,11.40
2006,10,06,04,11,11.40
2006,10,06,04,12,11.40
2006,10,06,04,13,11.40
2006,10,06,04,14,11.30
2006,10,06,04,15,11.30
2006,10,06,04,16,11.30
2006,10,06,04,17,11.30
2006,10,06,04,18,11.30
2006,10,06,04,19,11.30
2006,10,06,04,20,11.30
2006,10,06,04,21,11.30
2006,10,06,04,22,11.30
2006,10,06,04,23,11.30
2006,10,06,04,24,11.30
2006,10,06,04,25,11.40
2006,10,06,04,26,11.40
2006,10,06,04,27,11.40
2006,10,06,04,28,11.40
2006,10,06,04,29,11.50
2006,10,06,04,30,11.60
2006,10,06,04,31,11.60
2006,10,06,04,32,11.60
2006,10,06,04,33,11.80
2006,10,06,04,34,11.80
2006,10,06,04,35,11.90
2006,10,06,04,36,12.00
2006,10,06,04,37,12.00
2006,10,06,04,38,12.00
2006,10,06,04,39,11.90
2006,10,06,04,40,11.90
2006,10,06,04,41,11.80
2006,10,06,04,42,11.80
2006,10,06,04,43,11.80
2006,10,06,04,44,11.80
2006,10,06,04,45,11.70
2006,10,06,04,46,11.60
2006,10,06,04,47,11.60
2006,10,06,04,48,11.60
2006,10,06,04,49,11.60
2006,10,06,04,50,11.60
2006,10,06,04,51,11.60
2006,10,06,04,52,11.60
2006,10,06,04,53,11.60
2006,10,06,04,54,11.60
2006,10,06,04,55,11.60
2006,10,06,04,56,11.60
2006,10,06,04,57,11.60
2006,10,06,04,58,11.50
2006,10,06,04,59,11.40
2006,10,06,05,00,11.40
2006,10,06,05,01,11.40
2006,10,06,05,02,11.30
2006,10,06,05,03,11.30
2006,10,06,05,04,11.30
2006,10,06,05,05,11.30
2006,10,06,05,06,11.40
2006,10,06,05,07,11.40
2006,10,06,05,08,11.40
2006,10,06,05,09,11.40
2006,10,06,05,10,11.40
2006,10,06,05,11,11.30
2006,10,06,05,12,11.30
2006,10,06,05,13,11.20
2006,10,06,05,14,11.20
2006,10,06,05,15,11.20
2006,10,06,05,16,11.20
2006,10,06,05,17,11.30
2006,10,06,05,18,11.30
2006,10,06,05,19,11.30
2006,10,06,05,20,11.30
2006,10,06,05,21,11.20
2006,10,06,05,22,11.20
2006,10,06,05,23,11.10
2006,10,06,05,24,11.10
2006,10,06,05,25,11.10
2006,10,06,05,26,11.00
2006,10,06,05,27,10.90
2006,10,06,05,28,11.00
2006,10,06,05,29,11.10
2006,10,06,05,30,11.10
2006,10,06,05,31,11.10
2006,10,06,05,32,11.10
2006,10,06,05,33,11.10
2006,10,06,05,34,11.20
2006,10,06,05,35,11.20
2006,10,06,05,36,11.30
2006,10,06,05,37,11.30
2006,10,06,05,38,11.30
2006,10,06,05,39,11.30
2006,10,06,05,40,11.20
2006,10,06,05,41,11.20
2006,10,06,05,42,11.20
2006,10,06,05,43,11.20
2006,10,06,05,44,11.10
2006,10,06,05,45,11.10
2006,10,06,05,46,11.20
2006,10,06,05,47,11.20
2006,10,06,05,48,11.20
2006,10,06,05,49,11.20
2006,10,06,05,50,11.20
2006,10,06,05,51,11.10
2006,10,06,05,52,11.10
2006,10,06,05,53,11.20
2006,10,06,05,54,11.20
2006,10,06,05,55,11.20
2006,10,06,05,56,11.20
2006,10,06,05,57,11.10
2006,10,06,05,58,11.10
2006,10,06,05,59,11.20
2006,10,06,06,00,11.20
2006,10,06,06,01,11.10
2006,10,06,06,02,11.10
2006,10,06,06,03,11.10
2006,10,06,06,04,11.10
2006,10,06,06,05,11.10
2006,10,06,06,06,11.10
2006,10,06,06,07,11.10
2006,10,06,06,08,11.10
2006,10,06,06,09,11.10
2006,10,06,06,10,11.20
2006,10,06,06,11,11.20
2006,10,06,06,12,11.20
2006,10,06,06,13,11.20
2006,10,06,06,14,11.30
2006,10,06,06,15,11.30
2006,10,06,06,16,11.30
2006,10,06,06,17,11.30
2006,10,06,06,18,11.30
2006,10,06,06,19,11.30
2006,10,06,06,20,11.30
2006,10,06,06,21,11.40
2006,10,06,06,22,11.40
2006,10,06,06,23,11.40
2006,10,06,06,24,11.40
2006,10,06,06,25,11.40
2006,10,06,06,26,11.40
2006,10,06,06,27,11.40
2006,10,06,06,28,11.30
2006,10,06,06,29,11.30
2006,10,06,06,30,11.20
2006,10,06,06,31,11.30
2006,10,06,06,32,11.20
2006,10,06,06,33,11.20
2006,10,06,06,34,11.20
2006,10,06,06,35,11.20
2006,10,06,06,36,11.20
2006,10,06,06,37,11.10
2006,10,06,06,38,11.10
2006,10,06,06,39,11.10
2006,10,06,06,40,11.10
2006,10,06,06,41,11.00
2006,10,06,06,42,10.90
2006,10,06,06,43,10.90
2006,10,06,06,44,10.90
2006,10,06,06,45,10.90
2006,10,06,06,46,10.90
2006,10,06,06,47,10.90
2006,10,06,06,48,10.90
2006,10,06,06,49,10.90
2006,10,06,06,50,10.90
2006,10,06,06,51,10.90
2006,10,06,06,52,10.90
2006,10,06,06,53,10.90
2006,10,06,06,54,10.90
2006,10,06,06,55,10.90
2006,10,06,06,56,11.00
2006,10,06,06,57,11.10
2006,10,06,06,58,11.10
2006,10,06,06,59,11.10
2006,10,06,07,00,11.10
2006,10,06,07,01,11.10
2006,10,06,07,02,11.10
2006,10,06,07,03,11.10
2006,10,06,07,04,11.10
2006,10,06,07,05,11.10
2006,10,06,07,06,11.10
2006,10,06,07,07,11.00
2006,10,06,07,08,10.90
2006,10,06,07,09,11.00
2006,10,06,07,10,11.10
2006,10,06,07,11,11.10
2006,10,06,07,12,11.00
2006,10,06,07,13,10.90
2006,10,06,07,14,10.90
2006,10,06,07,15,10.90
2006,10,06,07,16,10.90
2006,10,06,07,17,10.90
2006,10,06,07,18,10.90
2006,10,06,07,19,10.90
2006,10,06,07,20,10.90
2006,10,06,07,21,10.80
2006,10,06,07,22,10.80
2006,10,06,07,23,10.80
2006,10,06,07,24,10.80
2006,10,06,07,25,10.80
2006,10,06,07,26,10.80
2006,10,06,07,27,10.80
2006,10,06,07,28,10.80
2006,10,06,07,29,10.80
2006,10,06,07,30,10.90
2006,10,06,07,31,10.90
2006,10,06,07,32,10.90
2006,10,06,07,33,10.90
2006,10,06,07,34,10.90
2006,10,06,07,35,10.90
2006,10,06,07,36,10.90
2006,10,06,07,37,10.90
2006,10,06,07,38,10.90
2006,10,06,07,39,10.90
2006,10,06,07,40,10.90
2006,10,06,07,41,10.90
2006,10,06,07,42,10.90
2006,10,06,07,43,10.80
2006,10,06,07,44,10.80
2006,10,06,07,45,10.80
2006,10,06,07,46,10.90
2006,10,06,07,47,10.90
2006,10,06,07,48,10.90
2006,10,06,07,49,10.90
2006,10,06,07,50,10.90
2006,10,06,07,51,10.90
2006,10,06,07,52,10.90
2006,10,06,07,53,10.90
2006,10,06,07,54,10.90
2006,10,06,07,55,10.90
2006,10,06,07,56,10.90
2006,10,06,07,57,10.90
2006,10,06,07,58,10.90
2006,10,06,07,59,10.90
2006,10,06,08,00,10.90
2006,10,06,08,01,10.90
2006,10,06,08,02,10.90
2006,10,06,08,03,11.00
2006,10,06,08,04,11.10
2006,10,06,08,05,11.10
2006,10,06,08,06,11.00
2006,10,06,08,07,10.90
2006,10,06,08,08,10.90
2006,10,06,08,09,10.90
2006,10,06,08,10,10.90
2006,10,06,08,11,10.90
2006,10,06,08,12,10.90
2006,10,06,08,13,10.90
2006,10,06,08,14,10.90
2006,10,06,08,15,10.90
2006,10,06,08,16,10.90
2006,10,06,08,17,10.90
2006,10,06,08,18,10.90
2006,10,06,08,19,10.90
2006,10,06,08,20,10.90
2006,10,06,08,21,10.90
2006,10,06,08,22,10.90
2006,10,06,08,23,10.90
2006,10,06,08,24,10.90
2006,10,06,08,25,10.90
2006,10,06,08,26,10.90
2006,10,06,08,27,10.90
2006,10,06,08,28,11.10
2006,10,06,08,29,11.10
2006,10,06,08,30,11.10
2006,10,06,08,31,11.10
2006,10,06,08,32,11.10
2006,10,06,08,33,11.10
2006,10,06,08,34,11.10
2006,10,06,08,35,11.10
2006,10,06,08,36,11.10
2006,10,06,08,37,11.10
2006,10,06,08,38,11.10
2006,10,06,08,39,11.10
2006,10,06,08,40,11.10
2006,10,06,08,41,11.10
2006,10,06,08,42,11.10
2006,10,06,08,43,11.10
2006,10,06,08,44,11.10
2006,10,06,08,45,11.10
2006,10,06,08,46,11.10
2006,10,06,08,47,11.10
2006,10,06,08,48,11.10
2006,10,06,08,49,11.10
2006,10,06,08,50,11.10
2006,10,06,08,51,11.10
2006,10,06,08,52,11.10
2006,10,06,08,53,11.10
2006,10,06,08,54,11.10
2006,10,06,08,55,11.20
2006,10,06,08,56,11.20
2006,10,06,08,57,11.20
2006,10,06,08,58,11.20
2006,10,06,08,59,11.20
2006,10,06,09,00,11.20
2006,10,06,09,01,11.20
2006,10,06,09,02,11.10
2006,10,06,09,03,11.10
2006,10,06,09,04,11.10
2006,10,06,09,05,11.10
2006,10,06,09,06,11.10
2006,10,06,09,07,11.10
2006,10,06,09,08,11.10
2006,10,06,09,09,11.10
2006,10,06,09,10,11.10
2006,10,06,09,11,11.10
2006,10,06,09,12,11.10
2006,10,06,09,13,11.10
2006,10,06,09,14,11.10
2006,10,06,09,15,11.10
2006,10,06,09,16,11.10
2006,10,06,09,17,11.10
2006,10,06,09,18,11.10
2006,10,06,09,19,11.10
2006,10,06,09,20,11.10
2006,10,06,09,21,11.10
2006,10,06,09,22,11.10
2006,10,06,09,23,11.20
2006,10,06,09,24,11.20
2006,10,06,09,25,11.20
2006,10,06,09,26,11.10
2006,10,06,09,27,11.20
2006,10,06,09,28,11.20
2006,10,06,09,29,11.20
2006,10,06,09,30,11.30
2006,10,06,09,31,11.30
2006,10,06,09,32,11.20
2006,10,06,09,33,11.20
2006,10,06,09,34,11.30
2006,10,06,09,35,11.40
2006,10,06,09,36,11.40
2006,10,06,09,37,11.40
2006,10,06,09,38,11.30
2006,10,06,09,39,11.30
2006,10,06,09,40,11.30
2006,10,06,09,41,11.30
2006,10,06,09,42,11.40
2006,10,06,09,43,11.30
2006,10,06,09,44,11.30
2006,10,06,09,45,11.30
2006,10,06,09,46,11.30
2006,10,06,09,47,11.30
2006,10,06,09,48,11.20
2006,10,06,09,49,11.20
2006,10,06,09,50,11.20
2006,10,06,09,51,11.30
2006,10,06,09,52,11.30
2006,10,06,09,53,11.40
2006,10,06,09,54,11.40
2006,10,06,09,55,11.40
2006,10,06,09,56,11.30
2006,10,06,09,57,11.30
2006,10,06,09,58,11.20
2006,10,06,09,59,11.20
2006,10,06,10,00,11.20
2006,10,06,10,01,11.20
2006,10,06,10,02,11.30
2006,10,06,10,03,11.30
2006,10,06,10,04,11.30
2006,10,06,10,05,11.30
2006,10,06,10,06,11.40
2006,10,06,10,07,11.40
2006,10,06,10,08,11.40
2006,10,06,10,09,11.40
2006,10,06,10,10,11.40
2006,10,06,10,11,11.40
2006,10,06,10,12,11.40
2006,10,06,10,13,11.60
2006,10,06,10,14,11.50
2006,10,06,10,15,11.60
2006,10,06,10,16,11.60
2006,10,06,10,17,11.60
2006,10,06,10,18,11.60
2006,10,06,10,19,11.60
2006,10,06,10,20,11.60
2006,10,06,10,21,11.60
2006,10,06,10,22,11.50
2006,10,06,10,23,11.40
2006,10,06,10,24,11.40
2006,10,06,10,25,11.50
2006,10,06,10,26,11.60
2006,10,06,10,27,11.60
2006,10,06,10,28,11.60
2006,10,06,10,29,11.70
2006,10,06,10,30,11.70
2006,10,06,10,31,11.60
2006,10,06,10,32,11.60
2006,10,06,10,33,11.60
2006,10,06,10,34,11.60
2006,10,06,10,35,11.60
2006,10,06,10,36,11.60
2006,10,06,10,37,11.60
2006,10,06,10,38,11.60
2006,10,06,10,39,11.60
2006,10,06,10,40,11.60
2006,10,06,10,41,11.60
2006,10,06,10,42,11.60
2006,10,06,10,43,11.60
2006,10,06,10,44,11.60
2006,10,06,10,45,11.60
2006,10,06,10,46,11.60
2006,10,06,10,47,11.60
2006,10,06,10,48,11.60
2006,10,06,10,49,11.60
2006,10,06,10,50,11.60
2006,10,06,10,51,11.60
2006,10,06,10,52,11.60
2006,10,06,10,53,11.60
2006,10,06,10,54,11.60
2006,10,06,10,55,11.60
2006,10,06,10,56,11.70
2006,10,06,10,57,11.70
2006,10,06,10,58,11.80
2006,10,06,10,59,11.80
2006,10,06,11,00,11.80
2006,10,06,11,01,11.80
2006,10,06,11,02,11.70
2006,10,06,11,03,11.80
2006,10,06,11,04,11.80
2006,10,06,11,05,11.80
2006,10,06,11,06,11.80
2006,10,06,11,07,11.80
2006,10,06,11,08,11.80
2006,10,06,11,09,11.80
2006,10,06,11,10,11.80
2006,10,06,11,11,11.80
2006,10,06,11,12,11.90
2006,10,06,11,13,11.90
2006,10,06,11,14,11.90
2006,10,06,11,15,11.90
2006,10,06,11,16,11.90
2006,10,06,11,17,11.90
2006,10,06,11,18,11.90
2006,10,06,11,19,12.00
2006,10,06,11,20,12.10
2006,10,06,11,21,12.10
2006,10,06,11,22,12.10
2006,10,06,11,23,12.20
2006,10,06,11,24,12.20
2006,10,06,11,25,12.10
2006,10,06,11,26,12.00
2006,10,06,11,27,12.00
2006,10,06,11,28,12.10
2006,10,06,11,29,12.00
2006,10,06,11,30,12.00
2006,10,06,11,31,12.00
2006,10,06,11,32,12.00
2006,10,06,11,33,12.00
2006,10,06,11,34,12.10
2006,10,06,11,35,12.10
2006,10,06,11,36,12.10
2006,10,06,11,37,12.20
2006,10,06,11,38,12.20
2006,10,06,11,39,12.20
2006,10,06,11,40,12.20
2006,10,06,11,41,12.20
2006,10,06,11,42,12.30
2006,10,06,11,43,12.30
2006,10,06,11,44,12.30
2006,10,06,11,45,12.30
2006,10,06,11,46,12.30
2006,10,06,11,47,12.30
2006,10,06,11,48,12.30
2006,10,06,11,49,12.30
2006,10,06,11,50,12.30
2006,10,06,11,51,12.30
2006,10,06,11,52,12.30
2006,10,06,11,53,12.30
2006,10,06,11,54,12.30
2006,10,06,11,55,12.30
2006,10,06,11,56,12.30
2006,10,06,11,57,12.30
2006,10,06,11,58,12.30
2006,10,06,11,59,12.30
2006,10,06,12,00,12.30
2006,10,06,12,01,12.30
2006,10,06,12,02,12.40
2006,10,06,12,03,12.40
2006,10,06,12,04,12.40
2006,10,06,12,05,12.30
2006,10,06,12,06,12.30
2006,10,06,12,07,12.30
2006,10,06,12,08,12.30
2006,10,06,12,09,12.40
2006,10,06,12,10,12.40
2006,10,06,12,11,12.40
2006,10,06,12,12,12.40
2006,10,06,12,13,12.40
2006,10,06,12,14,12.40
2006,10,06,12,15,12.40
2006,10,06,12,16,12.40
2006,10,06,12,17,12.40
2006,10,06,12,18,12.50
2006,10,06,12,19,12.50
2006,10,06,12,20,12.50
2006,10,06,12,21,12.50
2006,10,06,12,22,12.50
2006,10,06,12,23,12.50
2006,10,06,12,24,12.60
2006,10,06,12,25,12.60
2006,10,06,12,26,12.60
2006,10,06,12,27,12.50
2006,10,06,12,28,12.50
2006,10,06,12,29,12.50
2006,10,06,12,30,12.50
2006,10,06,12,31,12.50
2006,10,06,12,32,12.50
2006,10,06,12,33,12.50
2006,10,06,12,34,12.50
2006,10,06,12,35,12.40
2006,10,06,12,36,12.40
2006,10,06,12,37,12.50
2006,10,06,12,38,12.50
2006,10,06,12,39,12.50
2006,10,06,12,40,12.60
2006,10,06,12,41,12.60
2006,10,06,12,42,12.70
2006,10,06,12,43,12.70
2006,10,06,12,44,12.70
2006,10,06,12,45,12.70
2006,10,06,12,46,12.70
2006,10,06,12,47,12.70
2006,10,06,12,48,12.80
2006,10,06,12,49,12.80
2006,10,06,12,50,12.80
2006,10,06,12,51,12.80
2006,10,06,12,52,12.80
2006,10,06,12,53,12.80
2006,10,06,12,54,12.80
2006,10,06,12,55,12.80
2006,10,06,12,56,12.80
2006,10,06,12,57,12.80
2006,10,06,12,58,12.80
2006,10,06,12,59,12.80
2006,10,06,13,00,12.80
2006,10,06,13,01,12.80
2006,10,06,13,02,12.90
2006,10,06,13,03,12.90
2006,10,06,13,04,12.90
2006,10,06,13,05,13.00
2006,10,06,13,06,13.00
2006,10,06,13,07,13.00
2006,10,06,13,08,13.00
2006,10,06,13,09,12.90
2006,10,06,13,10,12.90
2006,10,06,13,11,12.90
2006,10,06,13,12,12.90
2006,10,06,13,13,12.80
2006,10,06,13,14,12.80
2006,10,06,13,15,12.80
2006,10,06,13,16,12.80
2006,10,06,13,17,13.00
2006,10,06,13,18,13.00
2006,10,06,13,19,13.10
2006,10,06,13,20,13.20
2006,10,06,13,21,13.30
2006,10,06,13,22,13.30
2006,10,06,13,23,13.30
2006,10,06,13,24,13.30
2006,10,06,13,25,13.30
2006,10,06,13,26,13.30
2006,10,06,13,27,13.30
2006,10,06,13,28,13.40
2006,10,06,13,29,13.40
2006,10,06,13,30,13.40
2006,10,06,13,31,13.40
2006,10,06,13,32,13.30
2006,10,06,13,33,13.30
2006,10,06,13,34,13.20
2006,10,06,13,35,13.20
2006,10,06,13,36,13.10
2006,10,06,13,37,13.10
2006,10,06,13,38,13.10
2006,10,06,13,39,13.00
2006,10,06,13,40,13.00
2006,10,06,13,41,13.10
2006,10,06,13,42,13.10
2006,10,06,13,43,13.20
2006,10,06,13,44,13.20
2006,10,06,13,45,13.30
2006,10,06,13,46,13.30
2006,10,06,13,47,13.30
2006,10,06,13,48,13.30
2006,10,06,13,49,13.30
2006,10,06,13,50,13.30
2006,10,06,13,51,13.30
2006,10,06,13,52,13.30
2006,10,06,13,53,13.30
2006,10,06,13,54,13.30
2006,10,06,13,55,13.30
2006,10,06,13,56,13.30
2006,10,06,13,57,13.30
2006,10,06,13,58,13.20
2006,10,06,13,59,13.20
2006,10,06,14,00,13.20
2006,10,06,14,01,13.10
2006,10,06,14,02,13.10
2006,10,06,14,03,13.20
2006,10,06,14,04,13.20
2006,10,06,14,05,13.20
2006,10,06,14,06,13.20
2006,10,06,14,07,13.20
2006,10,06,14,08,13.20
2006,10,06,14,09,13.20
2006,10,06,14,10,13.20
2006,10,06,14,11,13.30
2006,10,06,14,12,13.30
2006,10,06,14,13,13.30
2006,10,06,14,14,13.30
2006,10,06,14,15,13.30
2006,10,06,14,16,13.30
2006,10,06,14,17,13.30
2006,10,06,14,18,13.30
2006,10,06,14,19,13.30
2006,10,06,14,20,13.30
2006,10,06,14,21,13.30
2006,10,06,14,22,13.30
2006,10,06,14,23,13.30
2006,10,06,14,24,13.30
2006,10,06,14,25,13.30
2006,10,06,14,26,13.30
2006,10,06,14,27,13.30
2006,10,06,14,28,13.30
2006,10,06,14,29,13.30
2006,10,06,14,30,13.30
2006,10,06,14,31,13.30
2006,10,06,14,32,13.30
2006,10,06,14,33,13.30
2006,10,06,14,34,13.30
2006,10,06,14,35,13.30
2006,10,06,14,36,13.30
2006,10,06,14,37,13.30
2006,10,06,14,38,13.30
2006,10,06,14,39,13.20
2006,10,06,14,40,13.20
2006,10,06,14,41,13.30
2006,10,06,14,42,13.30
2006,10,06,14,43,13.30
2006,10,06,14,44,13.30
2006,10,06,14,45,13.30
2006,10,06,14,46,13.30
2006,10,06,14,47,13.30
2006,10,06,14,48,13.30
2006,10,06,14,49,13.30
2006,10,06,14,50,13.30
2006,10,06,14,51,13.30
2006,10,06,14,52,13.40
2006,10,06,14,53,13.40
2006,10,06,14,54,13.40
2006,10,06,14,55,13.40
2006,10,06,14,56,13.50
2006,10,06,14,57,13.50
2006,10,06,14,58,13.40
2006,10,06,14,59,13.30
2006,10,06,15,00,13.30
2006,10,06,15,01,13.30
2006,10,06,15,02,13.30
2006,10,06,15,03,13.30
2006,10,06,15,04,13.30
2006,10,06,15,05,13.30
2006,10,06,15,06,13.30
2006,10,06,15,07,13.30
2006,10,06,15,08,13.30
2006,10,06,15,09,13.30
2006,10,06,15,10,13.30
2006,10,06,15,11,13.30
2006,10,06,15,12,13.30
2006,10,06,15,13,13.30
2006,10,06,15,14,13.30
2006,10,06,15,15,13.30
2006,10,06,15,16,13.40
2006,10,06,15,17,13.40
2006,10,06,15,18,13.40
2006,10,06,15,19,13.40
2006,10,06,15,20,13.40
2006,10,06,15,21,13.40
2006,10,06,15,22,13.40
2006,10,06,15,23,13.40
2006,10,06,15,24,13.40
2006,10,06,15,25,13.50
2006,10,06,15,26,13.40
2006,10,06,15,27,13.40
2006,10,06,15,28,13.30
2006,10,06,15,29,13.30
2006,10,06,15,30,13.20
2006,10,06,15,31,13.20
2006,10,06,15,32,13.20
2006,10,06,15,33,13.20
2006,10,06,15,34,13.30
2006,10,06,15,35,13.40
2006,10,06,15,36,13.40
2006,10,06,15,37,13.50
2006,10,06,15,38,13.50
2006,10,06,15,39,13.50
2006,10,06,15,40,13.50
2006,10,06,15,41,13.50
2006,10,06,15,42,13.50
2006,10,06,15,43,13.50
2006,10,06,15,44,13.50
2006,10,06,15,45,13.60
2006,10,06,15,46,13.50
2006,10,06,15,47,13.50
2006,10,06,15,48,13.60
2006,10,06,15,49,13.60
2006,10,06,15,50,13.60
2006,10,06,15,51,13.50
2006,10,06,15,52,13.50
2006,10,06,15,53,13.50
2006,10,06,15,54,13.40
2006,10,06,15,55,13.40
2006,10,06,15,56,13.30
2006,10,06,15,57,13.30
2006,10,06,15,58,13.30
2006,10,06,15,59,13.30
2006,10,06,16,00,13.30
2006,10,06,16,01,13.30
2006,10,06,16,02,13.30
2006,10,06,16,03,13.30
2006,10,06,16,04,13.30
2006,10,06,16,05,13.30
2006,10,06,16,06,13.40
2006,10,06,16,07,13.40
2006,10,06,16,08,13.40
2006,10,06,16,09,13.50
2006,10,06,16,10,13.60
2006,10,06,16,11,13.60
2006,10,06,16,12,13.60
2006,10,06,16,13,13.60
2006,10,06,16,14,13.70
2006,10,06,16,15,13.70
2006,10,06,16,16,13.80
2006,10,06,16,17,13.90
2006,10,06,16,18,13.90
2006,10,06,16,19,13.80
2006,10,06,16,20,13.80
2006,10,06,16,21,13.70
2006,10,06,16,22,13.60
2006,10,06,16,23,13.50
2006,10,06,16,24,13.50
2006,10,06,16,25,13.40
2006,10,06,16,26,13.50
2006,10,06,16,27,13.60
2006,10,06,16,28,13.70
2006,10,06,16,29,13.70
2006,10,06,16,30,13.90
2006,10,06,16,31,13.90
2006,10,06,16,32,13.90
2006,10,06,16,33,13.80
2006,10,06,16,34,13.70
2006,10,06,16,35,13.50
2006,10,06,16,36,13.40
2006,10,06,16,37,13.30
2006,10,06,16,38,13.20
2006,10,06,16,39,13.20
2006,10,06,16,40,13.10
2006,10,06,16,41,13.10
2006,10,06,16,42,13.10
2006,10,06,16,43,13.10
2006,10,06,16,44,13.10
2006,10,06,16,45,13.10
2006,10,06,16,46,13.10
2006,10,06,16,47,13.00
2006,10,06,16,48,13.10
2006,10,06,16,49,13.10
2006,10,06,16,50,13.10
2006,10,06,16,51,13.10
2006,10,06,16,52,13.10
2006,10,06,16,53,13.20
2006,10,06,16,54,13.20
2006,10,06,16,55,13.30
2006,10,06,16,56,13.50
2006,10,06,16,57,13.50
2006,10,06,16,58,13.40
2006,10,06,16,59,13.30
2006,10,06,17,00,13.30
2006,10,06,17,01,13.30
2006,10,06,17,02,13.30
2006,10,06,17,03,13.30
2006,10,06,17,04,13.30
2006,10,06,17,05,13.30
2006,10,06,17,06,13.40
2006,10,06,17,07,13.40
2006,10,06,17,08,13.40
2006,10,06,17,09,13.40
2006,10,06,17,10,13.40
2006,10,06,17,11,13.30
2006,10,06,17,12,13.30
2006,10,06,17,13,13.40
2006,10,06,17,14,13.50
2006,10,06,17,15,13.50
2006,10,06,17,16,13.70
2006,10,06,17,17,13.70
2006,10,06,17,18,13.70
2006,10,06,17,19,13.70